Total_Precipitation_Accumulation
2.53 3.28 3.97 4.46 5.08 5.88 6.40 6.30 5.68 5.29 4.88 4.40 3.95 4.03 3.95 3.73 3.52 3.34 3.23 3.30 3.22 3.07 3.17 2.84 2.96 2.59 2.67 2.83 2.98 3.37 3.62 3.58 3.55 3.90 4.04 3.63 3.19 3.21 3.11 2.99 3.25 3.26 3.25
2.63 3.41 4.00 4.10 4.08 4.34 4.57 4.07 3.89 3.97 3.68 3.53 3.54 3.53 3.45 3.17 3.03 3.10 3.42 3.09 3.09 3.01 2.80 2.92 2.69 2.64 2.90 2.93 3.07 3.35 3.49 3.45 3.52 3.78 4.22 3.99 3.92 3.36 2.59 2.80 2.93 3.03 3.30
2.71 3.22 3.37 3.34 3.18 3.13 3.09 2.88 2.86 3.27 3.28 3.37 3.44 3.47 3.50 3.34 3.21 3.12 3.38 3.01 2.75 2.70 2.77 2.70 2.76 2.95 2.66 2.95 3.16 3.17 3.45 3.57 3.44 3.43 3.92 3.95 3.86 3.35 2.70 2.54 2.58 2.82 3.19
2.68 2.72 2.29 2.11 2.16 2.24 2.34 2.60 2.76 3.00 2.94 3.13 3.13 3.08 2.88 2.76 2.71 2.74 2.94 2.99 2.68 2.54 2.54 2.66 2.99 3.16 2.88 3.15 2.71 2.89 3.28 3.52 3.44 3.48 3.25 3.10 3.21 3.43 3.27 2.81 2.55 2.66 2.78
1.74 1.68 1.56 1.51 1.66 1.94 2.18 2.52 2.71 2.84 2.79 2.81 2.93 3.16 3.09 3.08 2.94 2.87 3.14 3.15 3.16 2.92 2.59 2.59 2.89 3.11 3.11 3.23 3.07 3.31 3.09 3.04 3.07 3.21 3.22 3.18 3.05 2.81 3.01 3.03 2.83 2.68 2.37
1.10 1.22 1.31 1.49 1.73 1.89 1.96 2.19 2.40 2.70 2.73 2.72 2.80 2.90 3.05 3.31 3.27 3.19 3.00 2.84 2.95 2.91 2.66 2.66 2.99 3.04 3.07 3.26 3.14 3.14 3.01 3.04 3.07 2.96 2.87 3.17 3.17 2.96 3.04 2.78 2.72 2.64 2.15
0.92 1.13 1.29 1.51 1.61 1.66 1.65 1.81 1.91 2.16 2.42 2.51 2.56 2.70 2.92 3.10 3.08 3.15 3.07 2.92 2.67 2.52 2.61 2.75 3.08 3.04 3.05 3.02 3.10 3.07 3.10 3.17 3.22 3.07 2.88 2.88 2.91 2.95 2.99 2.94 2.56 2.40 2.12
0.84 0.96 1.15 1.24 1.32 1.50 1.67 1.83 1.82 1.84 1.93 2.05 2.26 2.44 2.52 2.69 2.72 3.08 2.97 2.87 2.69 2.51 2.59 2.71 2.67 2.66 2.77 2.68 3.02 2.86 2.85 2.97 3.03 2.87 3.25 3.13 2.73 2.88 2.97 3.12 3.33 3.05 2.68
0.92 0.92 0.94 1.16 1.28 1.24 1.30 1.49 1.60 1.71 1.83 1.93 2.09 2.12 2.15 2.28 2.51 2.59 2.44 2.27 2.37 2.45 2.54 2.55 2.61 2.65 2.67 2.72 2.96 2.85 2.89 3.10 2.93 2.93 3.37 3.15 2.77 2.76 2.85 3.08 3.45 3.72 3.26
0.87 0.95 0.96 1.05 1.15 1.18 1.33 1.40 1.52 1.68 1.76 1.82 1.92 1.81 1.87 1.96 2.19 2.31 2.29 2.18 2.12 2.27 2.41 2.49 2.58 2.64 2.61 2.71 2.90 2.73 2.93 3.03 2.94 2.95 3.07 3.01 2.75 2.80 2.88 3.08 3.35 3.67 3.61
0.76 0.89 0.93 1.03 1.07 1.09 1.24 1.42 1.60 1.70 1.65 1.70 1.77 1.82 1.90 2.06 2.13 2.11 2.15 2.16 2.18 2.31 2.43 2.52 2.60 2.61 2.64 2.79 2.89 2.72 2.89 2.87 2.96 2.88 2.85 2.81 3.03 3.09 2.93 3.10 3.26 3.52 3.78
0.84 0.91 0.93 0.96 0.97 1.02 1.12 1.29 1.51 1.65 1.72 1.74 1.85 1.99 2.06 2.15 2.20 2.07 2.13 2.33 2.37 2.43 2.53 2.64 2.72 2.61 2.71 2.86 2.78 2.75 2.82 2.86 2.81 2.91 3.13 3.05 3.24 3.27 3.21 3.40 3.41 3.51 3.80
0.81 0.85 1.00 0.96 0.92 0.97 1.05 1.23 1.54 1.73 1.96 2.09 2.10 2.13 2.07 2.14 2.26 2.29 2.30 2.41 2.50 2.55 2.54 2.52 2.58 2.74 2.95 2.96 2.77 2.76 2.74 2.63 2.52 2.69 2.99 3.29 3.77 3.63 3.46 3.35 3.26 3.29 3.37
0.76 0.89 1.02 1.12 1.19 1.21 1.24 1.37 1.55 1.65 1.85 1.93 1.99 2.13 2.20 2.31 2.46 2.54 2.58 2.58 2.55 2.56 2.62 2.69 2.69 2.76 2.79 2.79 2.82 2.89 2.85 2.76 2.60 2.59 2.71 2.89 3.20 3.38 3.51 3.29 3.19 3.28 3.37
0.94 0.99 1.11 1.25 1.35 1.46 1.44 1.43 1.52 1.60 1.81 2.19 2.41 2.59 2.65 2.67 2.78 2.81 2.77 2.82 2.77 2.67 2.86 2.91 2.88 2.84 2.76 2.57 2.83 3.04 2.91 2.97 2.83 2.72 2.63 2.46 2.59 2.79 2.99 2.83 3.14 3.34 3.30
1.13 1.25 1.31 1.40 1.44 1.53 1.64 1.70 1.74 1.85 2.07 2.52 2.88 3.02 3.07 3.09 3.11 3.12 3.10 3.11 3.06 3.18 3.21 3.05 2.98 2.90 2.62 2.83 2.94 2.97 2.97 3.07 3.01 2.91 2.83 2.61 2.42 2.39 2.54 2.61 2.82 3.07 3.09
1.13 1.22 1.36 1.49 1.57 1.68 1.77 1.91 2.02 2.13 2.30 2.58 2.81 2.91 3.00 3.09 3.24 3.24 3.21 3.17 3.17 3.21 3.22 3.28 3.24 3.09 3.18 3.24 2.92 2.89 2.87 2.91 2.89 3.10 3.21 2.74 2.29 2.53 2.47 2.55 2.55 2.43 2.54
1.15 1.26 1.34 1.57 1.73 1.91 2.14 2.42 2.59 2.72 2.72 2.80 2.96 3.05 3.03 3.06 3.12 3.10 2.98 2.98 3.12 3.14 3.09 3.05 3.00 2.95 2.93 3.07 2.82 2.79 2.65 2.62 2.63 2.69 2.75 2.74 2.54 2.47 2.53 2.49 2.31 2.07 2.05
1.37 1.58 1.78 1.90 2.00 2.08 2.22 2.46 2.76 2.94 2.96 2.85 2.94 3.08 3.17 3.27 3.18 3.09 3.08 3.10 3.16 3.07 3.02 2.99 3.02 2.90 2.85 2.94 2.73 2.72 2.49 2.41 2.32 2.30 2.30 2.32 2.16 2.26 2.33 2.29 2.17 2.04 1.92
1.52 1.70 1.89 2.01 2.01 2.12 2.20 2.32 2.52 2.66 2.74 2.79 2.91 3.04 3.15 3.33 3.44 3.39 3.41 3.36 3.29 3.22 3.21 3.16 3.16 3.05 2.94 3.07 2.81 2.70 2.45 2.38 2.35 2.43 2.38 2.33 2.15 2.16 2.10 2.01 2.02 1.84 1.73
1.45 1.49 1.55 1.71 1.79 1.86 1.99 2.19 2.30 2.29 2.39 2.50 2.56 2.74 2.99 3.23 3.39 3.49 3.50 3.51 3.44 3.34 3.14 2.98 2.95 2.87 2.85 3.00 2.81 2.65 2.39 2.33 2.42 2.49 2.52 2.45 2.35 2.04 1.93 1.83 1.74 1.72 1.90
1.41 1.41 1.50 1.61 1.70 1.86 2.16 2.39 2.38 2.34 2.37 2.48 2.62 2.77 2.99 3.09 3.15 3.28 3.33 3.49 3.46 3.36 3.25 3.02 2.82 2.70 2.54 2.49 2.50 2.34 2.23 2.26 2.32 2.40 2.51 2.54 2.45 2.16 2.03 1.88 1.73 1.81 1.83
1.50 1.44 1.46 1.59 1.81 2.07 2.35 2.60 2.59 2.62 2.67 2.72 2.82 2.91 3.00 3.11 3.20 3.27 3.28 3.30 3.29 3.14 3.03 2.87 2.75 2.65 2.55 2.47 2.30 2.03 1.99 2.06 2.04 2.15 2.53 2.61 2.46 2.22 1.96 1.87 1.88 1.82 1.70
1.54 1.50 1.51 1.62 1.82 1.96 2.09 2.34 2.50 2.56 2.73 2.75 2.69 2.70 2.72 2.79 2.89 3.01 3.05 3.01 2.94 2.89 2.79 2.68 2.61 2.52 2.45 2.36 2.28 2.13 2.00 2.01 1.97 1.98 2.19 2.27 2.20 1.99 1.83 1.75 1.68 1.61 1.63
1.62 1.61 1.65 1.75 1.81 1.83 1.89 2.02 2.22 2.39 2.60 2.74 2.76 2.79 2.80 2.85 2.92 2.99 3.07 2.97 2.81 2.77 2.67 2.54 2.58 2.57 2.40 2.34 2.38 2.21 2.02 1.99 2.09 2.11 2.05 2.08 2.15 2.11 2.02 2.00 1.94 1.90 1.84
1.68 1.76 1.84 1.87 1.87 1.86 1.95 2.07 2.26 2.51 2.78 2.78 2.70 2.74 2.82 2.92 3.01 3.06 3.09 3.14 2.85 2.76 2.61 2.52 2.47 2.39 2.26 2.17 2.04 1.97 1.93 1.88 1.90 1.83 1.81 1.95 2.12 2.23 2.23 2.26 2.23 2.16 2.07